Location: Wellington
(41.3000°S, 174.8000°E)
Time: 08:25:36
(UTC+13:00)

ISS - Visible Passes

Search period start: 07 December 2025 00:00
Search period end: 17 December 2025 00:00
Orbit: 416 x 421 km, 51.6° (Epoch: 06 December)

Date Brightness Start Highest point End Pass type
(mag) Time Alt. Az. Time Alt. Az. Time Alt. Az.
07 Dec -0.4 01:35:51 10° SW 01:37:53 15° S 01:39:55 10° SSE visible
07 Dec -0.9 03:12:57 10° SW 03:15:39 21° SSE 03:18:20 10° ESE visible
07 Dec -3.7 04:49:23 10° SW 04:52:49 89° SSE 04:56:14 10° NE visible
07 Dec -2.9 21:32:37 10° NNW 21:35:35 29° NE 21:38:36 10° ESE visible
07 Dec -2.2 23:09:06 10° W 23:12:18 38° SSW 23:15:33 10° SE visible
08 Dec -0.5 00:47:39 10° SW 00:49:50 16° S 00:52:00 10° SSE visible
08 Dec -0.7 02:25:13 10° SSW 02:27:38 17° SSE 02:30:02 10° ESE visible
08 Dec -2.9 04:01:36 10° SW 04:05:00 55° SSE 04:08:22 10° ENE visible
08 Dec -3.1 22:21:03 10° WNW 22:24:25 58° SSW 22:27:48 10° SE visible
08 Dec -0.7 23:59:20 10° WSW 00:01:45 18° SSW 00:04:11 10° SSE visible
09 Dec -0.5 01:37:24 10° SSW 01:39:33 15° S 01:41:42 10° SE visible
09 Dec -2.1 03:13:52 10° SW 03:17:05 36° SSE 03:20:17 10° E visible
09 Dec -3.0 04:50:46 10° WSW 04:53:50 31° NW 04:56:53 10° NNE visible
09 Dec -3.8 21:33:09 10° NW 21:36:33 85° NE 21:39:58 10° SE visible
09 Dec -1.0 23:10:59 10° WSW 23:13:41 21° SSW 23:16:25 10° SE visible
10 Dec -0.4 00:49:25 10° SW 00:51:26 15° S 00:53:27 10° SE visible
10 Dec -1.4 02:26:08 10° SW 02:29:06 26° SSE 02:32:03 10° E visible
10 Dec -3.7 04:02:43 10° WSW 04:06:04 54° NW 04:09:24 10° NE visible
10 Dec -1.4 22:22:39 10° W 22:25:39 27° SSW 22:28:39 10° SE visible
11 Dec -0.4 00:01:15 10° SW 00:03:17 15° S 00:05:19 10° SSE visible
11 Dec -1.0 01:38:21 10° SW 01:41:02 21° SSE 01:43:42 10° ESE visible
11 Dec -3.8 03:14:46 10° SW 03:18:13 87° SE 03:21:38 10° NE visible
11 Dec -1.7 04:53:30 10° WNW 04:54:30 11° NW 04:55:30 10° NW visible
11 Dec -2.1 21:34:23 10° W 21:37:36 38° SSW 21:40:51 10° SE visible
11 Dec -0.5 23:12:55 10° SW 23:15:06 16° S 23:17:18 10° SSE visible
12 Dec -0.8 00:50:31 10° SSW 00:52:54 17° SSE 00:55:17 10° SE visible
12 Dec -2.6 02:26:54 10° SW 02:29:33 43° SSW 02:29:33 43° SSW visible
12 Dec -0.7 22:24:29 10° WSW 22:26:56 18° SSW 22:29:22 10° SSE visible
13 Dec -0.6 00:02:34 10° SSW 00:04:43 15° S 00:06:51 10° SE visible
13 Dec -2.0 01:39:03 10° SW 01:41:47 33° S 01:41:47 33° S visible
13 Dec -1.0 21:36:01 10° WSW 21:38:45 22° SSW 21:41:29 10° SE visible
13 Dec -0.6 23:14:28 10° SW 23:16:29 15° S 23:18:30 10° SE visible
14 Dec -1.6 00:51:12 10° SW 00:54:09 26° SSE 00:54:38 25° SE visible
14 Dec -0.7 22:26:10 10° SW 22:28:13 15° S 22:30:15 10° SSE visible
15 Dec -1.2 00:03:18 10° SSW 00:05:58 20° SSE 00:07:43 14° SE visible
15 Dec -1.2 01:39:42 10° SW 01:40:36 17° SW 01:40:36 17° SW visible
15 Dec -0.8 21:37:43 10° SW 21:39:56 16° S 21:42:08 10° SSE visible
15 Dec -0.9 23:15:21 10° SSW 23:17:43 17° SSE 23:20:05 10° SE visible
16 Dec -2.0 00:51:44 10° SW 00:53:49 32° SSW 00:53:49 32° SSW visible
16 Dec -0.8 22:27:17 10° SSW 22:29:25 15° S 22:31:33 10° SE visible
